ISR511 LLBG-LGRP

Flight info

Callsign ISR511
Flight time N/A
Altitude 36000
Route SUVAS N128 OTHON/N0380F240 N128 FOXLI
Aircraft A320/M-SDE2FGIJ1LORVWY/SB1

Departure

Time N/A
Airport Ben Gurion International Airport (LLBG)

Arrival

Time 2026-05-07 12:19
Airport Rhodes International Airport "Diagoras" (LGRP)
Time Latitude Longitude Altitude Speed Heading
2026-05-07 12:08 35.98909 28.43298 14960 ft 321 kts 326°
2026-05-07 12:08 36.00743 28.41732 14079 ft 320 kts 326°
2026-05-07 12:08 36.02566 28.40167 13197 ft 318 kts 326°
2026-05-07 12:08 36.04375 28.38605 12319 ft 317 kts 326°
2026-05-07 12:09 36.06172 28.37042 11439 ft 315 kts 326°
2026-05-07 12:09 36.07356 28.36008 10861 ft 314 kts 325°
2026-05-07 12:09 36.09137 28.34453 9994 ft 313 kts 325°
2026-05-07 12:09 36.10912 28.32904 9133 ft 312 kts 326°
2026-05-07 12:10 36.12690 28.31363 8252 ft 312 kts 327°
2026-05-07 12:10 36.14649 28.30262 7388 ft 310 kts 347°
2026-05-07 12:10 36.17385 28.30275 6904 ft 288 kts 13°
2026-05-07 12:10 36.19267 28.30896 6676 ft 274 kts 14°
2026-05-07 12:11 36.20507 28.31316 6595 ft 273 kts 15°
2026-05-07 12:11 36.22344 28.31945 6460 ft 273 kts 15°
2026-05-07 12:11 36.24174 28.32573 6363 ft 273 kts 15°
2026-05-07 12:11 36.26000 28.33199 6259 ft 272 kts 15°
2026-05-07 12:12 36.27828 28.33824 5999 ft 275 kts 15°
2026-05-07 12:12 36.29677 28.34459 5571 ft 277 kts 15°
2026-05-07 12:12 36.31535 28.35102 5151 ft 278 kts 15°
2026-05-07 12:12 36.33406 28.35751 4732 ft 280 kts 15°
2026-05-07 12:13 36.35284 28.36404 4306 ft 281 kts 15°
2026-05-07 12:13 36.37170 28.37061 3881 ft 282 kts 15°
2026-05-07 12:13 36.39069 28.37711 3455 ft 283 kts 13°
2026-05-07 12:13 36.40996 28.37862 3255 ft 274 kts 351°
2026-05-07 12:14 36.42758 28.37146 3130 ft 262 kts 329°
2026-05-07 12:14 36.44108 28.35757 3018 ft 251 kts 310°
2026-05-07 12:14 36.45239 28.34154 2889 ft 242 kts 310°
2026-05-07 12:14 36.46287 28.32574 2764 ft 232 kts 300°
2026-05-07 12:15 36.46754 28.30732 2638 ft 221 kts 270°
2026-05-07 12:15 36.46470 28.28905 2508 ft 212 kts 250°
2026-05-07 12:15 36.45971 28.27211 2381 ft 200 kts 250°
2026-05-07 12:15 36.45522 28.25702 2287 ft 178 kts 250°
2026-05-07 12:16 36.45122 28.24337 2145 ft 158 kts 250°
2026-05-07 12:16 36.44760 28.23095 2106 ft 147 kts 250°
2026-05-07 12:16 36.44419 28.21930 2004 ft 144 kts 249°
2026-05-07 12:16 36.44072 28.20743 1735 ft 146 kts 250°
2026-05-07 12:17 36.43729 28.19594 1550 ft 140 kts 250°
2026-05-07 12:17 36.43399 28.18471 1339 ft 138 kts 251°
2026-05-07 12:17 36.43073 28.17358 1150 ft 137 kts 252°
2026-05-07 12:17 36.42749 28.16254 997 ft 136 kts 251°
2026-05-07 12:18 36.42426 28.15150 803 ft 136 kts 251°
2026-05-07 12:18 36.42106 28.14046 725 ft 136 kts 250°
2026-05-07 12:18 36.41789 28.12939 533 ft 136 kts 251°
2026-05-07 12:18 36.41483 28.11869 347 ft 136 kts 250°
2026-05-07 12:19 36.41166 28.10768 142 ft 135 kts 251°
2026-05-07 12:19 36.40853 28.09698 31 ft 122 kts 251°
2026-05-07 12:19 36.40615 28.08877 29 ft 77 kts 250°
2026-05-07 12:19 36.40491 28.08449 28 ft 36 kts 249°
2026-05-07 12:20 36.40405 28.08170 28 ft 25 kts 247°
2026-05-07 12:20 36.40333 28.08023 29 ft 18 kts 230°
2026-05-07 12:20 36.40236 28.07908 28 ft 14 kts 220°
2026-05-07 12:20 36.40183 28.07862 28 ft 10 kts 200°
2026-05-07 12:21 36.40151 28.07918 28 ft 11 kts 73°
2026-05-07 12:21 36.40178 28.08014 28 ft 13 kts 69°
2026-05-07 12:21 36.40212 28.08127 28 ft 15 kts 70°
2026-05-07 12:21 36.40250 28.08260 28 ft 18 kts 70°
2026-05-07 12:22 36.40287 28.08384 28 ft 13 kts 70°
2026-05-07 12:22 36.40321 28.08501 28 ft 16 kts 70°
2026-05-07 12:22 36.40363 28.08641 28 ft 19 kts 70°
2026-05-07 12:22 36.40376 28.08686 28 ft 1 kts 69°
2026-05-07 12:23 36.40379 28.08695 28 ft 3 kts 69°
2026-05-07 12:23 36.40391 28.08741 28 ft 8 kts 74°
2026-05-07 12:23 36.40373 28.08803 28 ft 10 kts 149°
2026-05-07 12:23 36.40308 28.08833 28 ft 3 kts 160°
2026-05-07 12:24 36.40298 28.08837 28 ft 3 kts 160°
2026-05-07 12:24 36.40284 28.08844 28 ft 0 kts 160°
2026-05-07 12:24 36.40283 28.08844 28 ft 0 kts 160°